CSN0117 KCLE-KCMH

Flight info

Callsign CSN0117
Flight time 0h 31m
Altitude 27000
Route WAAHU BUGZZ
Aircraft A320/L-SDE2E3FGHIJ1RWXY/LB1

Departure

Time 2026-05-09 02:59
Airport Cleveland Hopkins International Airport (KCLE)

Arrival

Time 2026-05-09 03:30
Airport John Glenn Columbus International Airport (KCMH)
Time Latitude Longitude Altitude Speed Heading
2026-05-09 02:33 41.40769 -81.84275 794 ft 0 kts 139°
2026-05-09 02:48 41.40770 -81.84276 794 ft 2 kts 139°
2026-05-09 02:48 41.40781 -81.84289 794 ft 2 kts 139°
2026-05-09 02:48 41.40804 -81.84317 795 ft 7 kts 134°
2026-05-09 02:49 41.40838 -81.84371 794 ft 8 kts 129°
2026-05-09 02:49 41.40856 -81.84400 794 ft 0 kts 129°
2026-05-09 02:49 41.40858 -81.84403 794 ft 2 kts 129°
2026-05-09 02:49 41.40869 -81.84422 794 ft 3 kts 126°
2026-05-09 02:50 41.40877 -81.84445 794 ft 3 kts 75°
2026-05-09 02:50 41.40874 -81.84455 794 ft 0 kts 49°
2026-05-09 02:52 41.40881 -81.84443 794 ft 8 kts 49°
2026-05-09 02:52 41.40952 -81.84380 795 ft 13 kts
2026-05-09 02:53 41.40960 -81.84380 795 ft 0 kts
2026-05-09 02:53 41.40964 -81.84380 795 ft 2 kts
2026-05-09 02:53 41.41030 -81.84380 796 ft 14 kts 359°
2026-05-09 02:53 41.41143 -81.84382 794 ft 22 kts 359°
2026-05-09 02:54 41.41185 -81.84380 793 ft 1 kts 15°
2026-05-09 02:54 41.41230 -81.84338 794 ft 10 kts 42°
2026-05-09 02:54 41.41273 -81.84277 794 ft 10 kts 52°
2026-05-09 02:54 41.41339 -81.84167 793 ft 20 kts 39°
2026-05-09 02:55 41.41421 -81.84037 797 ft 0 kts 55°
2026-05-09 02:55 41.41424 -81.84033 797 ft 4 kts 50°
2026-05-09 02:55 41.41444 -81.83966 799 ft 3 kts 156°
2026-05-09 02:56 41.41441 -81.83983 799 ft 5 kts 265°
2026-05-09 02:56 41.41418 -81.84066 796 ft 0 kts 260°
2026-05-09 02:56 41.41416 -81.84083 796 ft 3 kts 261°
2026-05-09 02:56 41.41424 -81.84113 795 ft 3 kts 333°
2026-05-09 02:57 41.41444 -81.84127 794 ft 3 kts 326°
2026-05-09 02:57 41.41470 -81.84154 793 ft 5 kts 321°
2026-05-09 02:57 41.41499 -81.84219 793 ft 10 kts 280°
2026-05-09 02:57 41.41482 -81.84292 791 ft 0 kts 230°
2026-05-09 02:58 41.41479 -81.84297 791 ft 1 kts 230°
2026-05-09 02:58 41.41470 -81.84311 791 ft 6 kts 230°
2026-05-09 02:58 41.41267 -81.84633 792 ft 92 kts 230°
2026-05-09 02:58 41.40680 -81.85576 785 ft 168 kts 230°
2026-05-09 02:59 41.39906 -81.86841 1324 ft 182 kts 227°
2026-05-09 02:59 41.38811 -81.87658 1874 ft 177 kts 191°
2026-05-09 02:59 41.37547 -81.87829 2434 ft 190 kts 183°
2026-05-09 02:59 41.36153 -81.87895 3001 ft 211 kts 182°
2026-05-09 03:00 41.34598 -81.87948 3541 ft 237 kts 182°
2026-05-09 03:00 41.32877 -81.88004 4295 ft 249 kts 182°
2026-05-09 03:00 41.31241 -81.88054 5644 ft 228 kts 182°
2026-05-09 03:00 41.29706 -81.88100 6762 ft 218 kts 182°
2026-05-09 03:01 41.28188 -81.88147 7514 ft 219 kts 183°
2026-05-09 03:01 41.26724 -81.88641 8128 ft 220 kts 211°
2026-05-09 03:01 41.25424 -81.89733 8814 ft 223 kts 213°
2026-05-09 03:01 41.24109 -81.90853 9510 ft 226 kts 213°
2026-05-09 03:02 41.22776 -81.91989 10206 ft 229 kts 213°
2026-05-09 03:02 41.21427 -81.93140 10894 ft 232 kts 213°
2026-05-09 03:02 41.20058 -81.94305 11563 ft 236 kts 213°
2026-05-09 03:02 41.18666 -81.95487 12228 ft 239 kts 213°
2026-05-09 03:03 41.17271 -81.96669 12880 ft 243 kts 213°
2026-05-09 03:03 41.15836 -81.97885 13536 ft 247 kts 213°
2026-05-09 03:03 41.14372 -81.99126 13998 ft 252 kts 213°
2026-05-09 03:03 41.12897 -82.00381 14099 ft 252 kts 213°
2026-05-09 03:04 41.11423 -82.01635 14117 ft 252 kts 213°
2026-05-09 03:04 41.09950 -82.02884 14117 ft 252 kts 213°
2026-05-09 03:04 41.08471 -82.04136 14120 ft 252 kts 213°
2026-05-09 03:04 41.06994 -82.05381 14120 ft 252 kts 213°
2026-05-09 03:05 41.05536 -82.06610 14120 ft 252 kts 213°
2026-05-09 03:05 41.04025 -82.07889 14162 ft 270 kts 213°
2026-05-09 03:05 41.02433 -82.09237 14915 ft 268 kts 213°
2026-05-09 03:05 41.00871 -82.10558 15746 ft 266 kts 213°
2026-05-09 03:06 40.99310 -82.11877 16419 ft 268 kts 213°
2026-05-09 03:06 40.97728 -82.13210 17058 ft 271 kts 213°
2026-05-09 03:06 40.96130 -82.14553 17683 ft 273 kts 213°
2026-05-09 03:06 40.94517 -82.15910 18296 ft 276 kts 213°
2026-05-09 03:07 40.92893 -82.17280 18893 ft 279 kts 213°
2026-05-09 03:07 40.91270 -82.18650 19472 ft 281 kts 213°
2026-05-09 03:07 40.89614 -82.20045 20046 ft 284 kts 213°
2026-05-09 03:07 40.87937 -82.21456 20603 ft 287 kts 213°
2026-05-09 03:08 40.86245 -82.22877 21139 ft 290 kts 213°
2026-05-09 03:08 40.84534 -82.24313 21665 ft 293 kts 213°
2026-05-09 03:08 40.82807 -82.25763 22178 ft 296 kts 213°
2026-05-09 03:08 40.81059 -82.27228 22683 ft 299 kts 213°
2026-05-09 03:09 40.79272 -82.28724 22956 ft 312 kts 213°
2026-05-09 03:09 40.77410 -82.30285 23007 ft 331 kts 213°
2026-05-09 03:09 40.75405 -82.31965 23007 ft 352 kts 213°
2026-05-09 03:09 40.73282 -82.33743 23007 ft 371 kts 212°
2026-05-09 03:10 40.71047 -82.35613 23009 ft 390 kts 212°
2026-05-09 03:10 40.68703 -82.37570 23008 ft 407 kts 212°
2026-05-09 03:10 40.66262 -82.39604 23008 ft 423 kts 212°
2026-05-09 03:10 40.63715 -82.41660 23008 ft 436 kts 208°
2026-05-09 03:11 40.60885 -82.43240 23007 ft 446 kts 201°
2026-05-09 03:11 40.57980 -82.44683 23009 ft 447 kts 201°
2026-05-09 03:11 40.55074 -82.45947 22931 ft 445 kts 196°
2026-05-09 03:11 40.52126 -82.47031 22761 ft 433 kts 195°
2026-05-09 03:12 40.49281 -82.48055 22632 ft 415 kts 195°
2026-05-09 03:12 40.46521 -82.49039 22034 ft 411 kts 195°
2026-05-09 03:12 40.43735 -82.50031 21066 ft 418 kts 195°
2026-05-09 03:12 40.40916 -82.51038 20099 ft 423 kts 195°
2026-05-09 03:13 40.35397 -82.53016 19425 ft 402 kts 195°
2026-05-09 03:13 40.32678 -82.53992 18489 ft 408 kts 195°
2026-05-09 03:13 40.29917 -82.54985 17498 ft 415 kts 195°
2026-05-09 03:14 40.27113 -82.55988 16481 ft 420 kts 195°
2026-05-09 03:14 40.24283 -82.56996 15613 ft 422 kts 195°
2026-05-09 03:14 40.21500 -82.57985 14916 ft 418 kts 195°
2026-05-09 03:14 40.18708 -82.58974 14234 ft 414 kts 195°
2026-05-09 03:15 40.15940 -82.59952 13559 ft 410 kts 195°
2026-05-09 03:15 40.13203 -82.60922 12888 ft 406 kts 195°
2026-05-09 03:15 40.10470 -82.61772 12200 ft 402 kts 188°
2026-05-09 03:15 40.07701 -82.61711 11519 ft 398 kts 169°
2026-05-09 03:16 40.05126 -82.60484 10813 ft 394 kts 150°
2026-05-09 03:16 40.03026 -82.58238 10094 ft 391 kts 130°
2026-05-09 03:16 40.01633 -82.55230 9341 ft 387 kts 111°
2026-05-09 03:16 40.01092 -82.51873 8608 ft 383 kts 94°
2026-05-09 03:17 40.00955 -82.48423 7829 ft 379 kts 92°
2026-05-09 03:17 40.00845 -82.45004 7062 ft 375 kts 92°
2026-05-09 03:17 40.00738 -82.41619 6284 ft 371 kts 92°
2026-05-09 03:17 40.00634 -82.38276 5497 ft 367 kts 92°
2026-05-09 03:18 40.00533 -82.34966 4704 ft 363 kts 92°
2026-05-09 03:18 40.00433 -82.31695 3904 ft 359 kts 92°
2026-05-09 03:18 40.00335 -82.28463 3297 ft 351 kts 92°
2026-05-09 03:18 39.99929 -82.25435 3113 ft 331 kts 111°
2026-05-09 03:19 39.98733 -82.23014 3070 ft 308 kts 136°
2026-05-09 03:19 39.97033 -82.21606 3079 ft 285 kts 162°
2026-05-09 03:19 39.95151 -82.21269 3081 ft 264 kts 180°
2026-05-09 03:19 39.93385 -82.21331 3081 ft 245 kts 188°
2026-05-09 03:20 39.91900 -82.22138 3084 ft 224 kts 222°
2026-05-09 03:20 39.91083 -82.23754 3084 ft 218 kts 257°
2026-05-09 03:20 39.91060 -82.25709 3084 ft 218 kts 278°
2026-05-09 03:20 39.91334 -82.27649 3081 ft 218 kts 282°
2026-05-09 03:21 39.91653 -82.29580 3084 ft 218 kts 283°
2026-05-09 03:21 39.92125 -82.31426 3088 ft 218 kts 291°
2026-05-09 03:21 39.92595 -82.33296 3082 ft 217 kts 282°
2026-05-09 03:21 39.93036 -82.35145 3083 ft 205 kts 291°
2026-05-09 03:22 39.93543 -82.36804 3083 ft 196 kts 292°
2026-05-09 03:22 39.94046 -82.38447 3082 ft 195 kts 286°
2026-05-09 03:22 39.94304 -82.40186 3087 ft 195 kts 279°
2026-05-09 03:22 39.94530 -82.41933 3081 ft 195 kts 279°
2026-05-09 03:23 39.94756 -82.43679 3081 ft 195 kts 279°
2026-05-09 03:23 39.94982 -82.45424 3084 ft 195 kts 279°
2026-05-09 03:23 39.95207 -82.47170 3084 ft 195 kts 279°
2026-05-09 03:23 39.95428 -82.48893 3087 ft 195 kts 279°
2026-05-09 03:24 39.95651 -82.50638 3081 ft 195 kts 279°
2026-05-09 03:24 39.95875 -82.52383 3083 ft 195 kts 279°
2026-05-09 03:24 39.96100 -82.54129 3090 ft 195 kts 279°
2026-05-09 03:24 39.96325 -82.55874 3081 ft 195 kts 279°
2026-05-09 03:25 39.96548 -82.57620 3089 ft 195 kts 279°
2026-05-09 03:25 39.96770 -82.59366 3083 ft 195 kts 279°
2026-05-09 03:25 39.96990 -82.61113 3081 ft 195 kts 279°
2026-05-09 03:25 39.97211 -82.62859 3087 ft 195 kts 279°
2026-05-09 03:26 39.97433 -82.64607 3081 ft 195 kts 279°
2026-05-09 03:26 39.97652 -82.66330 3080 ft 195 kts 279°
2026-05-09 03:26 39.97900 -82.68071 3089 ft 195 kts 281°
2026-05-09 03:26 39.98097 -82.69713 3115 ft 170 kts 276°
2026-05-09 03:27 39.98209 -82.71149 3081 ft 149 kts 275°
2026-05-09 03:27 39.98297 -82.72500 2984 ft 149 kts 275°
2026-05-09 03:27 39.98380 -82.73849 2827 ft 150 kts 274°
2026-05-09 03:27 39.98461 -82.75195 2642 ft 148 kts 274°
2026-05-09 03:28 39.98539 -82.76537 2459 ft 148 kts 274°
2026-05-09 03:28 39.98616 -82.77849 2262 ft 147 kts 274°
2026-05-09 03:28 39.98693 -82.79175 2073 ft 146 kts 274°
2026-05-09 03:28 39.98769 -82.80498 1886 ft 146 kts 274°
2026-05-09 03:29 39.98843 -82.81818 1662 ft 145 kts 274°
2026-05-09 03:29 39.98906 -82.83074 1684 ft 140 kts 274°
2026-05-09 03:29 39.98979 -82.84352 1525 ft 141 kts 275°
2026-05-09 03:29 39.99065 -82.85642 1153 ft 142 kts 275°
2026-05-09 03:30 39.99145 -82.86898 1040 ft 135 kts 274°
2026-05-09 03:30 39.99204 -82.88083 827 ft 127 kts 273°
2026-05-09 03:30 39.99250 -82.88875 816 ft 54 kts 273°
2026-05-09 03:30 39.99317 -82.89116 821 ft 14 kts
2026-05-09 03:31 39.99343 -82.89112 820 ft 0 kts
2026-05-09 03:31 39.99344 -82.89112 820 ft 0 kts
2026-05-09 03:31 39.99348 -82.89112 820 ft 1 kts
2026-05-09 03:32 39.99378 -82.89109 820 ft 7 kts
2026-05-09 03:32 39.99434 -82.89061 819 ft 12 kts 74°
2026-05-09 03:32 39.99431 -82.88930 820 ft 17 kts 94°
2026-05-09 03:32 39.99419 -82.88724 818 ft 29 kts 94°
2026-05-09 03:33 39.99402 -82.88471 819 ft 27 kts 97°
2026-05-09 03:33 39.99477 -82.88324 820 ft 21 kts
2026-05-09 03:33 39.99619 -82.88285 819 ft 17 kts 70°
2026-05-09 03:33 39.99684 -82.88231 820 ft 12 kts 357°
2026-05-09 03:34 39.99713 -82.88174 820 ft 6 kts 73°
2026-05-09 03:34 39.99747 -82.88155 821 ft 0 kts